User: anonymous
Location: Bowman Observatory
(41.0326°N, 73.6210°W)
Time: 00:52:20
(UTC-04:00)
Language:

Cosmos 2298 Rocket - Orbit

View from above orbital plane
View from above orbital plane
View from above satellite
View from above satellite

Ground track
Ground track

The orbit data is extracted from the following two-line orbital elements,

1 23432U 94083B   14258.78114424  .00000069  00000-0  34536-4 0  9337
2 23432 074.0347 336.3266 0004543 058.2477 079.8679 14.33282882 32247
Epoch (UTC): 15 September 2014 18:44:50
Eccentricity: 0.0004543
inclination: 74.0347°
perigee height: 777 km
apogee height: 784 km
right ascension of ascending node: 336.3266°
argument of perigee: 58.2477°
revolutions per day: 14.33282882
mean anomaly at epoch: 79.8679°
orbit number at epoch: 3224

The dashed part of the orbit path shows where the satellite is in the earth's shadow,  

DLR